Location: Hopewell Observatory
(38.8698°N, 77.6988°W)
Time: 22:06:40
(UTC-04:00)

Amateur Radio Satellites - All Passes

Search period start: 16 October 2017 21:36
Search period end: 17 October 2017 21:36
Location: Hopewell Observatory, 38.8698°N, 77.6988°W

Satellite Date Start Highest point End Downlink Frequencies (MHz)
Time Altitude Azimuth
STRAND 1 16 Oct 21:39:01 21:43:28 30° 292° (WNW) 21:47:54 437.568
ZACube-1 16 Oct 21:40:58 21:44:32 22° 266° (W) 21:48:07 437.345
AAUSAT CUBESAT 2 16 Oct 21:46:13 21:47:08 11° 270° (W) 21:48:02 437.432
O/OREOS (USA 219) 16 Oct 21:57:25 22:01:57 79° 108° (ESE) 22:06:33 437.305
YUBILEINY 16 Oct 21:58:01 22:06:51 82° 264° (W) 22:15:40 435.215
DELFI C3 16 Oct 22:15:03 22:18:54 61° 259° (W) 22:22:47 145.870
BEESAT 2 16 Oct 22:24:43 22:27:28 17° 46° (NE) 22:30:13 435.950
EO-88 16 Oct 22:27:49 22:31:29 82° 260° (W) 22:35:09 145.990 - 145.960
Max Valier Satellite 16 Oct 22:27:54 22:31:35 57° 260° (W) 22:35:16 145.860
Oscar 11 16 Oct 22:28:16 22:29:18 11° 270° (W) 22:30:20 .
UNISAT 6 16 Oct 22:34:26 22:38:46 38° 97° (E) 22:43:00 437.425
TIGRISAT 16 Oct 22:50:18 22:54:51 52° 99° (E) 22:59:16 435.000
BEESAT 3 16 Oct 22:50:48 22:54:46 80° 240° (WSW) 22:58:38 437.485
FO-29 16 Oct 22:56:27 23:02:51 49° 289° (WNW) 23:09:56 435.910
AO-85 16 Oct 23:00:12 23:04:17 32° 52° (NE) 23:08:39 145.980
PRISM 16 Oct 23:21:12 23:25:14 52° 100° (E) 23:29:15 437.425
LO-87 16 Oct 23:30:57 23:34:30 71° 76° (ENE) 23:38:06 145.935 - 145.965
O/OREOS (USA 219) 16 Oct 23:40:31 23:41:58 11° 308° (NW) 23:43:25 437.305
SPROUT 16 Oct 23:44:18 23:46:53 16° 66° (ENE) 23:49:29 437.525
ESTCUBE 1 16 Oct 23:47:23 23:51:52 74° 76° (ENE) 23:56:22 437.505/2401.250
VELOX 1 16 Oct 23:57:18 23:59:57 16° 65° (ENE) 00:02:36 145.980
YUBILEINY 16 Oct 23:58:00 00:02:10 14° 284° (WNW) 00:06:20 435.215
BEESAT 2 17 Oct 00:01:34 00:05:26 44° 244° (WSW) 00:09:12 435.950
UNISAT 6 17 Oct 00:11:47 00:15:10 20° 294° (WNW) 00:18:29 437.425
EO-79 17 Oct 00:22:55 00:26:21 23° 95° (E) 00:29:45 145.935-145.965
POLYITAN 1 17 Oct 00:26:21 00:29:54 25° 96° (E) 00:33:26 437.675
TIGRISAT 17 Oct 00:28:22 00:31:02 15° 296° (WNW) 00:33:40 435.000
AO-85 17 Oct 00:40:36 00:44:39 29° 246° (WSW) 00:48:55 145.980
QB50P2 17 Oct 00:45:51 00:50:00 48° 99° (E) 00:54:06 145.880/145.840
AIST 2D 17 Oct 00:52:00 00:55:16 40° 286° (WNW) 00:58:31 435.315
NANOSAT C BR1 17 Oct 00:53:24 00:57:31 46° 99° (E) 01:01:35 145.865
PRISM 17 Oct 00:58:17 01:00:02 12° 296° (WNW) 01:01:46 437.425
DUCHIFAT 1 17 Oct 01:06:27 01:10:39 57° 100° (E) 01:14:48 145.980
RS-15 17 Oct 01:07:41 01:19:14 51° 110° (ESE) 01:30:51 29.354- 29.394
50 SAT 17 Oct 01:13:22 01:16:05 25° 71° (ENE) 01:18:49 437.505
DX 1 17 Oct 01:15:30 01:19:08 27° 69° (ENE) 01:22:48 434.975-435.025
SPROUT 17 Oct 01:18:20 01:22:23 43° 261° (W) 01:26:30 437.525
BUGSAT 1 17 Oct 01:30:53 01:34:29 26° 96° (E) 01:38:01 437.445
VELOX 1 17 Oct 01:31:49 01:36:00 45° 261° (W) 01:40:13 145.980
Oscar 19 17 Oct 01:35:07 01:38:07 15° 92° (E) 01:41:06 437.125/150
Gurwin Techsat 1B 17 Oct 01:36:19 01:36:57 10° 89° (E) 01:37:34 435.225
UKube-1 17 Oct 01:47:43 01:51:42 39° 71° (ENE) 01:55:43 .
EO-79 17 Oct 01:58:25 02:02:02 27° 291° (WNW) 02:05:38 145.935-145.965
POLYITAN 1 17 Oct 02:02:04 02:05:35 25° 291° (WNW) 02:09:04 437.675
QB50P2 17 Oct 02:23:03 02:25:21 14° 295° (WNW) 02:27:38 145.880/145.840
NANOSAT C BR1 17 Oct 02:30:27 02:32:48 15° 295° (WNW) 02:35:09 145.865
DUCHIFAT 1 17 Oct 02:44:08 02:45:47 12° 296° (WNW) 02:47:25 145.980
50 SAT 17 Oct 02:46:39 02:48:25 14° 266° (W) 02:50:12 437.505
DX 1 17 Oct 02:51:46 02:55:16 24° 264° (W) 02:58:47 434.975-435.025
M-CUBED/EXP-1 PRIME 17 Oct 02:54:13 02:57:43 84° 106° (ESE) 03:01:27 437.505
ITUPSAT 1 17 Oct 02:55:41 02:59:44 28° 68° (ENE) 03:03:48 437.325
MOZHAYETS 4 17 Oct 03:04:02 03:08:15 36° 71° (ENE) 03:12:29
BUGSAT 1 17 Oct 03:06:16 03:09:42 24° 291° (WNW) 03:13:05 437.445
Gurwin Techsat 1B 17 Oct 03:12:10 03:17:31 86° 285° (WNW) 03:22:50 435.225
Oscar 19 17 Oct 03:12:45 03:17:47 57° 287° (WNW) 03:22:46 437.125/150
BEESAT 17 Oct 03:13:24 03:17:54 43° 71° (ENE) 03:22:26 436.000
RS-15 17 Oct 03:19:52 03:31:45 52° 312° (NW) 03:43:41 29.354- 29.394
UKube-1 17 Oct 03:25:07 03:27:51 17° 266° (W) 03:30:36 .
ITAMSAT 1 17 Oct 03:38:29 03:41:12 14° 91° (E) 03:43:55 435.822/435.867
NO-84 17 Oct 03:44:08 03:47:08 19° 124° (SE) 03:50:08 435.350 FM
AO-7 17 Oct 04:20:33 04:28:36 51° 102° (ESE) 04:36:35 .
ITUPSAT 1 17 Oct 04:33:17 04:37:26 29° 263° (W) 04:41:38 437.325
CUBESAT XI-V 17 Oct 04:41:15 04:45:54 83° 76° (ENE) 04:50:33 437.345
MOZHAYETS 4 17 Oct 04:41:57 04:45:28 21° 266° (W) 04:48:59
BEESAT 17 Oct 04:52:30 04:55:50 19° 267° (W) 04:59:11 436.000
Gurwin Techsat 1B 17 Oct 04:55:13 04:56:36 11° 301° (WNW) 04:57:59 435.225
KKS-1 17 Oct 04:59:41 05:03:46 38° 71° (ENE) 05:07:53 437.445
ITAMSAT 1 17 Oct 05:15:53 05:21:05 65° 287° (WNW) 05:26:15 435.822/435.867
NO-84 17 Oct 05:20:00 05:24:15 58° 319° (NW) 05:28:24 435.350 FM
RS-15 17 Oct 05:39:20 05:48:11 22° 342° (NNW) 05:56:53 29.354- 29.394
STARS 17 Oct 05:43:25 05:47:34 45° 72° (ENE) 05:51:47 437.465
DOVE 4 17 Oct 05:58:35 06:03:20 47° 99° (E) 06:08:17 437.250
AO-7 17 Oct 06:13:45 06:21:03 36° 300° (WNW) 06:28:22 .
O/OREOS (USA 219) 17 Oct 06:31:14 06:33:25 13° 54° (NE) 06:35:35 437.305
KKS-1 17 Oct 06:37:24 06:40:26 18° 266° (W) 06:43:29 437.445
LilacSat-2 17 Oct 06:47:03 06:50:29 33° 97° (E) 06:53:55 437.200
XW-2F 17 Oct 06:50:10 06:53:31 31° 97° (E) 06:56:50 145.980 - 146.000
KAITUO 1B 17 Oct 06:55:09 06:58:21 28° 96° (E) 07:01:32 145.475/437.950
CUTE-I 17 Oct 06:57:30 07:02:26 36° 98° (E) 07:07:21 437.470
XW-2D 17 Oct 06:59:13 07:02:51 46° 99° (E) 07:06:27 145.860 - 145.880
NO-84 17 Oct 07:00:02 07:02:22 14° 337° (NNW) 07:04:41 435.350 FM
XW-2B 17 Oct 07:12:28 07:16:12 68° 101° (E) 07:19:54 145.730 - 145.750
STRAND 1 17 Oct 07:14:21 07:19:04 39° 70° (ENE) 07:23:49 437.568
NUDT-PHONESAT 17 Oct 07:15:31 07:19:05 50° 100° (E) 07:22:37 437.300
STARS 17 Oct 07:21:38 07:24:08 15° 268° (W) 07:26:37 437.465
CUBEBUG 2 17 Oct 07:23:51 07:24:57 11° 89° (E) 07:26:02 437.445
XW-2C 17 Oct 07:35:32 07:39:13 56° 285° (WNW) 07:42:52 145.795 - 145.815
DOVE 4 17 Oct 07:37:11 07:40:40 20° 293° (WNW) 07:44:17 437.250
SO-50 17 Oct 07:50:51 07:55:08 47° 116° (ESE) 07:59:26 436.795
RS-15 17 Oct 07:58:09 08:07:00 22° 19° (NNE) 08:15:33 29.354- 29.394
HO-68 17 Oct 08:07:46 08:14:52 58° 102° (ESE) 08:21:55 435.675
UWE-3 17 Oct 08:08:04 08:11:18 19° 93° (E) 08:14:26 435.000/436.395/437.385
O/OREOS (USA 219) 17 Oct 08:08:44 08:13:19 67° 251° (WSW) 08:17:51 437.305
XW-2A 17 Oct 08:15:10 08:17:46 21° 96° (E) 08:20:20 145.665 - 145.685
LilacSat-2 17 Oct 08:22:17 08:24:27 15° 293° (WNW) 08:26:38 437.200
XW-2F 17 Oct 08:25:06 08:27:21 15° 292° (WNW) 08:29:35 145.980 - 146.000
KAITUO 1B 17 Oct 08:29:41 08:32:07 17° 292° (WNW) 08:34:32 145.475/437.950
XW-2D 17 Oct 08:35:29 08:36:34 11° 295° (WNW) 08:37:40 145.860 - 145.880
CUTE 1.7 + AOD 2 17 Oct 08:35:52 08:40:01 63° 285° (WNW) 08:44:09 437.475
CUTE-I 17 Oct 08:37:49 08:42:18 28° 294° (WNW) 08:46:47 437.470
Oscar 11 17 Oct 08:38:57 08:40:38 12° 91° (E) 08:42:19 .
SEEDS 17 Oct 08:50:19 08:54:28 72° 283° (WNW) 08:58:36 437.485
STRAND 1 17 Oct 08:54:19 08:58:20 23° 266° (W) 09:02:24 437.568
PCSat 17 Oct 08:55:01 08:59:52 35° 110° (ESE) 09:04:46 145.827
CUBEBUG 2 17 Oct 08:57:22 09:02:02 68° 285° (WNW) 09:06:32 437.445
YUBILEINY 17 Oct 09:03:18 09:09:41 24° 81° (E) 09:16:04 435.215
FO-29 17 Oct 09:08:10 09:13:17 67° 74° (ENE) 09:18:40 435.910
AO-73 17 Oct 09:09:48 09:13:58 41° 98° (E) 09:18:00 145.935
AAUSAT CUBESAT 2 17 Oct 09:25:38 09:29:42 64° 285° (WNW) 09:33:47 437.432
ZACube-1 17 Oct 09:29:22 09:33:48 82° 101° (ESE) 09:38:06 437.345
Tancredo 1 17 Oct 09:29:50 09:31:32 29° 137° (SE) 09:33:14 437.200
UNISAT 6 17 Oct 09:31:45 09:35:44 29° 69° (ENE) 09:39:47 437.425
SO-50 17 Oct 09:32:28 09:35:48 20° 314° (NW) 09:39:10 436.795
JUGNU 17 Oct 09:32:51 09:34:16 11° 178° (S) 09:35:43 437.505
UWE-3 17 Oct 09:43:40 09:47:51 37° 289° (WNW) 09:51:54 435.000/436.395/437.385
TIGRISAT 17 Oct 09:47:15 09:51:31 39° 71° (ENE) 09:55:53 435.000
XW-2A 17 Oct 09:47:59 09:50:19 18° 291° (WNW) 09:52:37 145.665 - 145.685
DELFI C3 17 Oct 09:53:49 09:56:28 17° 94° (E) 09:59:07 145.870
HO-68 17 Oct 09:56:17 10:02:07 27° 299° (WNW) 10:07:55 435.675
Max Valier Satellite 17 Oct 10:00:20 10:02:10 13° 92° (E) 10:04:00 145.860
PRISM 17 Oct 10:09:13 10:12:46 30° 70° (ENE) 10:16:19 437.425
RS-15 17 Oct 10:11:20 10:23:05 56° 50° (NE) 10:34:08 29.354- 29.394
Oscar 11 17 Oct 10:12:52 10:17:04 53° 286° (WNW) 10:21:14 .
NO-84 17 Oct 10:18:50 10:20:23 12° 20° (NNE) 10:21:53 435.350 FM
ISS 17 Oct 10:25:43 10:26:03 10° 127° (SE) 10:26:23 437.550
PCSat 17 Oct 10:38:25 10:43:14 32° 307° (NW) 10:48:05 145.827
AO-73 17 Oct 10:47:03 10:49:49 17° 294° (WNW) 10:52:32 145.935
FO-29 17 Oct 10:56:58 10:59:03 12° 271° (W) 11:01:10 435.910
YUBILEINY 17 Oct 10:56:58 11:05:36 69° 280° (W) 11:14:18 435.215
Tancredo 1 17 Oct 11:02:57 11:03:31 11° 333° (NNW) 11:04:06 437.200
UNISAT 6 17 Oct 11:08:32 11:12:22 26° 265° (W) 11:16:17 437.425
EO-79 17 Oct 11:14:46 11:17:19 16° 66° (ENE) 11:19:54 145.935-145.965
POLYITAN 1 17 Oct 11:18:11 11:20:59 17° 66° (ENE) 11:23:47 437.675
AIST 2D 17 Oct 11:24:18 11:27:43 49° 75° (ENE) 11:31:07 435.315
TIGRISAT 17 Oct 11:25:01 11:28:20 19° 267° (W) 11:31:41 435.000
DELFI C3 17 Oct 11:27:44 11:31:15 31° 288° (WNW) 11:34:46 145.870
EO-88 17 Oct 11:31:04 11:34:35 50° 286° (WNW) 11:38:05 145.990 - 145.960
Max Valier Satellite 17 Oct 11:32:45 11:36:06 34° 287° (WNW) 11:39:26 145.860
nSIGHT-1 17 Oct 11:35:03 11:38:12 71° 141° (SE) 11:41:25 .
QB50P2 17 Oct 11:37:05 11:40:49 30° 70° (ENE) 11:44:34 145.880/145.840
ESTCUBE 1 17 Oct 11:42:07 11:45:02 17° 93° (E) 11:47:55 437.505/2401.250
NANOSAT C BR1 17 Oct 11:44:08 11:47:48 29° 70° (ENE) 11:51:29 145.865
PRISM 17 Oct 11:45:10 11:48:03 19° 265° (W) 11:50:57 437.425
SRMSAT 17 Oct 11:49:29 11:50:38 11° 174° (S) 11:51:47 437.500
NO-84 17 Oct 11:54:58 11:58:36 51° 40° (NE) 12:01:54 435.350 FM
DUCHIFAT 1 17 Oct 11:56:44 12:00:33 35° 71° (ENE) 12:04:27 145.980
ISS 17 Oct 11:58:50 12:02:04 74° 322° (NW) 12:05:19 437.550
BUGSAT 1 17 Oct 12:19:59 12:22:36 16° 66° (ENE) 12:25:14 437.445
RS-15 17 Oct 12:24:25 12:35:10 44° 252° (WSW) 12:45:25 29.354- 29.394
LO-87 17 Oct 12:32:02 12:35:40 76° 283° (WNW) 12:39:17 145.935 - 145.965
BEESAT 3 17 Oct 12:39:27 12:42:32 22° 112° (ESE) 12:45:39 437.485
EO-79 17 Oct 12:48:39 12:52:42 43° 261° (W) 12:56:48 145.935-145.965
Oscar 19 17 Oct 12:50:30 12:54:21 22° 65° (ENE) 12:58:13 437.125/150
POLYITAN 1 17 Oct 12:52:25 12:56:25 39° 262° (W) 13:00:28 437.675
Gurwin Techsat 1B 17 Oct 12:54:36 12:57:53 17° 62° (ENE) 13:01:11 435.225
YUBILEINY 17 Oct 13:01:01 13:04:12 12° 301° (WNW) 13:07:24 435.215
SPROUT 17 Oct 13:05:01 13:08:55 33° 97° (E) 13:12:47 437.525
nSIGHT-1 17 Oct 13:12:32 13:14:48 17° 337° (NNW) 13:17:04 .
QB50P2 17 Oct 13:13:21 13:16:35 21° 265° (W) 13:19:52 145.880/145.840
ESTCUBE 1 17 Oct 13:17:47 13:21:59 41° 288° (WNW) 13:26:10 437.505/2401.250
NANOSAT C BR1 17 Oct 13:20:11 13:23:29 22° 265° (W) 13:26:48 145.865
VELOX 1 17 Oct 13:22:47 13:26:52 35° 98° (E) 13:30:55 145.980
AO-7 17 Oct 13:31:26 13:34:55 13° 47° (NE) 13:38:24 .
DUCHIFAT 1 17 Oct 13:33:23 13:36:18 18° 266° (W) 13:39:14 145.980
NO-84 17 Oct 13:33:43 13:35:29 13° 238° (WSW) 13:37:10 435.350 FM
ISS 17 Oct 13:37:03 13:39:00 15° 340° (NNW) 13:40:59 437.550
SRMSAT 17 Oct 13:37:18 13:38:52 11° 184° (S) 13:40:26 437.500
M-CUBED/EXP-1 PRIME 17 Oct 13:39:04 13:42:35 85° 69° (ENE) 13:45:55 437.505
BEESAT 2 17 Oct 13:50:58 13:54:41 39° 115° (ESE) 13:58:29 435.950
BUGSAT 1 17 Oct 13:53:42 13:57:36 40° 262° (W) 14:01:34 437.445
50 SAT 17 Oct 14:05:19 14:08:10 26° 97° (E) 14:11:00 437.505
BEESAT 3 17 Oct 14:16:19 14:19:54 31° 308° (NW) 14:23:30 437.485
Oscar 19 17 Oct 14:28:25 14:33:20 44° 261° (W) 14:38:17 437.125/150
Gurwin Techsat 1B 17 Oct 14:32:03 14:37:17 62° 259° (W) 14:42:34 435.225
DX 1 17 Oct 14:39:56 14:44:16 61° 102° (ESE) 14:48:35 434.975-435.025
SPROUT 17 Oct 14:41:24 14:44:34 20° 293° (WNW) 14:47:43 437.525
AO-85 17 Oct 14:53:46 14:57:36 59° 304° (NW) 15:01:30 145.980
ITAMSAT 1 17 Oct 14:54:53 14:58:38 21° 64° (ENE) 15:02:25 435.822/435.867
VELOX 1 17 Oct 14:59:47 15:03:03 20° 293° (WNW) 15:06:18 145.980
UKube-1 17 Oct 15:11:13 15:15:34 86° 109° (ESE) 15:19:53 .
BEESAT 17 Oct 15:16:56 15:18:31 11° 90° (E) 15:20:05 436.000
AO-7 17 Oct 15:17:54 15:26:02 62° 67° (ENE) 15:34:10 .
BEESAT 2 17 Oct 15:29:37 15:32:34 19° 313° (NW) 15:35:33 435.950
50 SAT 17 Oct 15:38:26 15:40:14 14° 292° (WNW) 15:42:03 437.505
Tancredo 1 17 Oct 15:40:22 15:41:30 14° 30° (NNE) 15:42:38 437.200
DX 1 17 Oct 16:18:08 16:19:54 12° 297° (WNW) 16:21:41 434.975-435.025
SO-50 17 Oct 16:23:05 16:27:13 31° 51° (NE) 16:31:23 436.795
nSIGHT-1 17 Oct 16:28:01 16:29:36 13° 18° (NNE) 16:31:11 .
ITAMSAT 1 17 Oct 16:32:46 16:37:44 47° 261° (W) 16:42:45 435.822/435.867
ITUPSAT 1 17 Oct 16:34:05 16:38:54 77° 103° (ESE) 16:43:40 437.325
MOZHAYETS 4 17 Oct 16:36:43 16:41:19 82° 282° (WNW) 16:45:52
CUBESAT XI-V 17 Oct 16:39:39 16:43:13 22° 94° (E) 16:46:45 437.345
BEESAT 17 Oct 16:51:57 16:56:43 68° 286° (WNW) 17:01:27 436.000
ISS 17 Oct 16:52:06 16:54:14 16° 21° (NNE) 16:56:23 437.550
DOVE 4 17 Oct 17:03:27 17:07:12 35° 71° (ENE) 17:11:05 437.250
Tancredo 1 17 Oct 17:11:54 17:13:07 16° 226° (SW) 17:14:20 437.200
AO-7 17 Oct 17:12:25 17:19:12 28° 264° (W) 17:26:01 .
LilacSat-2 17 Oct 17:28:37 17:30:53 15° 67° (ENE) 17:33:09 437.200
XW-2F 17 Oct 17:30:52 17:32:50 14° 67° (ENE) 17:34:48 145.980 - 146.000
KAITUO 1B 17 Oct 17:35:26 17:36:52 12° 66° (ENE) 17:38:18 145.475/437.950
XW-2D 17 Oct 17:39:40 17:42:26 20° 69° (ENE) 17:45:12 145.860 - 145.880
PCSat 17 Oct 17:44:03 17:48:25 24° 50° (NE) 17:52:44 145.827
XW-2B 17 Oct 17:52:29 17:55:42 26° 71° (ENE) 17:58:55 145.730 - 145.750
NUDT-PHONESAT 17 Oct 17:53:48 17:56:29 19° 69° (ENE) 17:59:09 437.300
nSIGHT-1 17 Oct 18:03:16 18:06:27 56° 36° (NE) 18:09:36 .
SO-50 17 Oct 18:03:37 18:07:35 29° 247° (WSW) 18:11:35 436.795
ITUPSAT 1 17 Oct 18:14:26 18:16:02 12° 299° (WNW) 18:17:37 437.325
XW-2C 17 Oct 18:14:57 18:18:39 52° 75° (ENE) 18:22:22 145.795 - 145.815
CUBESAT XI-V 17 Oct 18:16:29 18:20:36 33° 290° (WNW) 18:24:43 437.345
CUTE-I 17 Oct 18:17:58 18:23:05 52° 72° (ENE) 18:28:16 437.470
KKS-1 17 Oct 18:27:37 18:32:08 88° 279° (W) 18:36:37 437.445
ISS 17 Oct 18:27:49 18:31:07 87° 44° (NE) 18:34:23 437.550
HO-68 17 Oct 18:35:11 18:41:36 38° 65° (ENE) 18:48:05 435.675
DOVE 4 17 Oct 18:42:21 18:45:03 17° 268° (W) 18:47:48 437.250
LilacSat-2 17 Oct 19:01:19 19:04:50 34° 262° (W) 19:08:23 437.200
XW-2F 17 Oct 19:03:03 19:06:36 37° 262° (W) 19:10:09 145.980 - 146.000
UWE-3 17 Oct 19:04:14 19:06:49 15° 64° (ENE) 19:09:25 435.000/436.395/437.385
KAITUO 1B 17 Oct 19:06:51 19:10:26 43° 261° (W) 19:14:01 145.475/437.950
STARS 17 Oct 19:09:42 19:14:09 77° 284° (WNW) 19:18:34 437.465
XW-2D 17 Oct 19:13:13 19:16:25 26° 264° (W) 19:19:39 145.860 - 145.880
CUTE 1.7 + AOD 2 17 Oct 19:26:37 19:30:50 74° 76° (ENE) 19:35:04 437.475
PCSat 17 Oct 19:26:50 19:32:04 50° 248° (WSW) 19:37:15 145.827
NUDT-PHONESAT 17 Oct 19:27:01 19:30:09 25° 264° (W) 19:33:17 437.300
XW-2B 17 Oct 19:27:06 19:29:50 19° 266° (W) 19:32:36 145.730 - 145.750
STRAND 1 17 Oct 19:27:26 19:30:12 14° 91° (E) 19:32:58 437.568
SEEDS 17 Oct 19:40:08 19:44:17 63° 75° (ENE) 19:48:25 437.485
nSIGHT-1 17 Oct 19:40:46 19:42:23 13° 231° (SW) 19:44:00 .
CUBEBUG 2 17 Oct 19:53:14 19:57:50 83° 78° (ENE) 20:02:35 437.445
CUTE-I 17 Oct 19:59:51 20:03:25 18° 267° (W) 20:07:01 437.470
AO-73 17 Oct 20:03:37 20:07:33 29° 70° (ENE) 20:11:29 145.935
AAUSAT CUBESAT 2 17 Oct 20:13:51 20:17:55 66° 76° (ENE) 20:22:00 437.432
XW-2A 17 Oct 20:16:20 20:19:45 71° 259° (W) 20:23:11 145.665 - 145.685
FO-29 17 Oct 20:20:36 20:22:15 11° 88° (E) 20:23:55 435.910
HO-68 17 Oct 20:22:35 20:29:12 40° 261° (W) 20:35:54 435.675
ZACube-1 17 Oct 20:23:05 20:27:30 53° 74° (ENE) 20:32:00 437.345
UWE-3 17 Oct 20:38:13 20:42:44 56° 260° (W) 20:47:21 435.000/436.395/437.385
O/OREOS (USA 219) 17 Oct 20:42:16 20:45:04 16° 99° (E) 20:47:53 437.305
BEESAT 3 17 Oct 20:58:11 20:59:22 11° 42° (NE) 21:00:33 437.485
STRAND 1 17 Oct 21:04:40 21:09:47 62° 287° (WNW) 21:14:51 437.568
Oscar 11 17 Oct 21:05:42 21:10:03 85° 260° (W) 21:14:24 .
YUBILEINY 17 Oct 21:08:34 21:17:14 57° 78° (ENE) 21:25:51 435.215
